Regional Weather Roundup
Issued by NWS

Home | Current Version | Previous Version | Graphics & Text | Print | Product List | Glossary On
Versions: 1 2 3 4 5 6 7 8 9 10 11 12 13 14 15 16 17 18 19 20 21 22 23 24 25 26 27 28 29 30 31 32 33 34 35 36 37 38 39 40 41 42 43 44 45 46 47 48 49 50
000
ASUS43 KLMK 180502
RWRKY
KENTUCKY REGIONAL WEATHER ROUNDUP
NATIONAL WEATHER SERVICE LOUISVILLE KY
1200 AM EST WED JAN 18 2017

NOTE "FAIR" INDICATES FEW OR NO CLOUDS BELOW 12,000 FEET
WITH NO SIGNIFICANT WEATHER AND/OR OBSTRUCTIONS TO VISIBILITY.

KYZ001>023-026-027-061>063-070>075-180600-
WESTERN AND SOUTH CENTRAL KENTUCKY

CITY           SKY/WX    TMP DP  RH WIND       PRES   REMARKS
PADUCAH        CLOUDY    45  39  79 W5        30.17S
HENDERSON      CLOUDY    45  37  76 W6        30.15S
OWENSBORO      CLOUDY    44  41  89 W9        30.16R
HOPKINSVILLE   CLOUDY    45  41  85 NW9       30.16F
BOWLING GREEN  CLOUDY    47  40  76 W7        30.16R
GLASGOW        NOT AVBL
$$

KYZ024-025-028>034-038-045-046-053-180600-
NORTH CENTRAL KENTUCKY

CITY           SKY/WX    TMP DP  RH WIND       PRES   REMARKS
LOUISVILLE/SDF CLOUDY    45  39  79 W9        30.11S
LOUISVILLE/LOU CLOUDY    45  39  79 W8        30.12R
FORT KNOX      CLOUDY    43  39  87 W10       30.11S
$$

KYZ035>037-039>044-047>052-055>060-089>105-180600-
NORTHEAST KENTUCKY

CITY           SKY/WX    TMP DP  RH WIND       PRES   REMARKS
LEXINGTON      CLOUDY    46  40  79 W14G25    30.08S
COVINGTON      DRIZZLE   44  41  89 W9        30.04F
FRANKFORT      CLOUDY    46  38  73 W8G22     30.08S
$$

KYZ054-064>069-076>088-106>120-180600-
SOUTHEAST KENTUCKY

CITY           SKY/WX    TMP DP  RH WIND       PRES   REMARKS
JACKSON        CLOUDY    51  45  79 W12G17    30.05R
LONDON         CLOUDY    52  45  77 W10       30.08R
SOMERSET       NOT AVBL
MIDDLESBORO    MOCLDY    59  50  72 W15G24    30.05S
MONTICELLO     CLOUDY    52  46  80 W14G22    30.13R
$$





USA.gov is the U.S. government's official web portal to all federal, state and local government web resources and services.